User: anonymous
Location: Brno
(49.2000°N, 16.6330°E)
Time: 19:38:38
(UTC+02:00)
Language:

Cosmos 2227 - Orbit

View from above orbital plane
View from above orbital plane
View from above satellite
View from above satellite

Ground track
Ground track

The orbit data is extracted from the following two-line orbital elements,

1 22284U 92093A   14202.79162029 -.00000189  00000-0 -75473-4 0  9255
2 22284 070.9782 300.3922 0019758 331.4517 175.5154 14.13157306112694
Epoch (UTC): 21 July 2014 18:59:55
Eccentricity: 0.0019758
inclination: 70.9782°
perigee height: 834 km
apogee height: 863 km
right ascension of ascending node: 300.3922°
argument of perigee: 331.4517°
revolutions per day: 14.13157306
mean anomaly at epoch: 175.5154°
orbit number at epoch: 11269

The dashed part of the orbit path shows where the satellite is in the earth's shadow,  

DLR